Weather in Radishchevo

Russia / Saratov Oblast     50˚27′57″N   48˚04′31″E
temp.,
°C
wind,
m/s
gust,
m/s
humid.,
%
clouds,
%
prec.,
mm/h
press.,
hPa
HPBL,
m
16 january, sat
sat1601:00−2˚wsw51095100 1.8 999482
04:00−8˚wsw7149296 1.8 1002425
07:00−10˚wsw8158961 0.0 1005466
10:00−9˚sw8158966 0.0 1008436
13:00−6˚sw8148945 0.0 1009540
16:00−4˚sw8159467 0.3 1009883
19:00−8˚wsw9168353 0.3 1009616
22:00−12˚wsw8158948 0.3 1012508
17 january, sun
sun1701:00−14˚sw6149076 0.0 1013435
04:00−15˚wsw6139377 0.0 1013400
07:00−16˚sw599559 0.0 1013176
10:00−17˚w349529 0.0 101581
13:00−15˚wsw239364 0.0 1015155
16:00−16˚nw229278 0.0 101520
19:00−19˚nne229396 0.0 101620
22:00−19˚nne339295 0.0 101724
18 january, mon
mon1801:00−18˚nne349299 0.0 101685
04:00−17˚ne479199 0.0 1015165
07:00−18˚ne4791100 0.0 1015126
10:00−16˚nne5889100 0.0 1015250
13:00−15˚nne5889100 0.0 1014260
16:00−15˚n71090100 0.0 1012294
19:00−15˚nne61093100 0.3 1013274
22:00−15˚n6995100 2.1 1013292
19 january, tue
tue1901:00−16˚nnw6994100 0.5 1013250
04:00−17˚nw5895100 0.5 1014235
07:00−19˚nw489694 0.0 1014146
10:00−20˚wnw469686 0.0 1015109
13:00−17˚w57934 0.0 1016261
16:00−19˚w359425 0.0 1015115
19:00−21˚w44950 0.0 101655
22:00−22˚w34960 0.0 101750
20 january, wed
wed2001:00−23˚w34986 0.0 101749
04:00−24˚w34985 0.0 101842
07:00−24˚w349870 0.0 101846
10:00−23˚wsw359750 0.0 101993
13:00−20˚w479595 0.0 1020276
16:00−18˚w489595 0.0 1020312
19:00−20˚w479788 0.0 1021119
22:00−21˚wnw479579 0.0 1023119